Terminal Aerodrome Forecast
Issued by NWS St Louis, MO

Home | Current Version | Previous Version | Text Only | Print | Product List | Glossary On
Versions: 1 2 3 4 5 6 7 8 9 10 11 12 13 14 15 16 17 18 19 20 21 22 23 24 25 26 27 28
000
FTUS43 KLSX 021100
TAFSTL
TAF
KSTL 021120Z 0212/0318 00000KT P6SM BKN100
     FM021400 22007KT P6SM BKN080
     FM021900 19008KT P6SM SCT080 BKN200
     FM030100 16006KT P6SM SCT100 BKN200=

USA.gov is the U.S. government's official web portal to all federal, state and local government web resources and services.